Kezdőlap
METAR-TAF:

METAR-TAF

Repülőterek :

Marshfield Municipal Airport

Marshfield, Wisconsin, Amerikai Egyesült Államok

földrajzi szélesség: 44-38-17N, földrajzi hosszúság: 090-11-15W, magasság: 389 m

Jelenlegi meteorológiai megfigyelések

A jelentés 29 perccel ezelõtt készült, 10:54 UTC
Északkeleti szél 4 kt
Hőmérséklet 7°C
Páratartalom 70%
Légköri nyomás 1017 hPa
Látótávolság: 16.1 km
Derült ég

METAR: KMFI 171054Z AUTO 05004KT 10SM CLR 07/02 A3002 RMK AO2 SLP170 T00670022 $

Idő: 06:23 (11:23 UTC)


TAF: hiányzik

Meteorológiai megfigyelések és előrejelzések több, mint 4000 repülőtéren (METAR és TAF jelentéseket).

A térképen piros és sárga pontok jelzik az elérhető meteorológiai állomásokat.

Mozgassa az egeret a pont fölött, hogy megjelenjen az állomás neve.

Azután kattintson az időjárási megfigyelések és előrejelzések megtekintéséhez.

A térkép megváltoztatása: kattintson a fekete keresztel jelölt zöld gombra ráközelítéshez, a vonallal jelölt zöld gombra távolításhoz, vagy a zöld nyilakra a szomszédos térképek eléréséhez.


METAR-TAF: